Find Starlink 5995

NORAD ID: 56456 Int'l Des: 2023-064 Owner: SPXS Country: US Constellation: starlink operational
LEOCIRCULAR

現在のビュー

3D地球を読み込み中...

About Starlink 5995

Starlink 5995 (NORAD 56456) is a starlink constellation satellite (v1.5) launched May 10, 2023 by SPXS of US. It operates in LEO, CIRCULAR orbit with a mass of 305.00 kg.

次回通過

Passes for default location (London). Set your location on the main map for personalized predictions.

高度履歴

Loading altitude history...

軌道要素

1 56456U 23064J 26263.41976424 .00000127 00000-0 18399-4 0 9991
2 56456 70.0008 13.5180 0003137 272.9664 87.1136 14.98334996184411
Epoch: Sep 20, 2026 • Age: 12 hours

現在のステータス

高度 580.3 km
遠地点 / 近地点 N/A
速度 7.57 km/s
衛星直下点 -26.04°S, 130.59°W
打ち上げ日 May 10, 2023
運用期間 3.3 years
タイプ internet

技術仕様

分類 Payload
質量 305.00 kg
乾燥質量 290.00 kg
長さ 0.20 m
スパン 9.00 m
形状 ? Box + pan
製造者 SPXS
バスタイプ Starlink
フェーズステータス In Orbit
所有者/国 SPXS/US

Most Searched